Location: Mountain Lakes
(44.1215°N, 71.9554°W)
Time: 16:00:51
(UTC+00:00)

BlueWalker 3 - Pass Details

Date: 08 September 2024
Orbit: 472 x 484 km, 53.2° (Epoch: 12 October)

Event Time Altitude Azimuth Distance (km) Brightness Sun altitude
Rises 23:50:53 0° 304° (NW) 2,546 7.2 -8.0°
Reaches altitude 10° 23:53:18 10° 317° (NW) 1,669 5.6 -8.4°
Maximum altitude 23:56:31 26° 16° (NNE) 996 3.5 -9.0°
Drops below altitude 10° 23:59:44 10° 74° (ENE) 1,674 4.1 -9.5°
Enters shadow 23:59:51 - 75° (ENE) 1,713 4.1 -9.5°
